Location: Narrabri
(30.3170°S, 149.7830°E)
Time: 16:56:32
(UTC+10:00)

Amateur Radio Satellites - All Passes

Search period start: 25 June 2017 16:26
Search period end: 26 June 2017 16:26
Location: Narrabri, 30.3170°S, 149.7830°E

Satellite Date Start Highest point End Downlink Frequencies (MHz)
Time Altitude Azimuth
AO-7 25 Jun 16:29:33 16:37:24 47° 247° (WSW) 16:45:13 .
STARS 25 Jun 16:36:25 16:40:49 72° 103° (ESE) 16:45:16 437.465
CUBESAT XI-V 25 Jun 16:41:09 16:45:05 27° 277° (W) 16:49:05 437.345
AO-85 25 Jun 17:01:27 17:06:16 41° 122° (ESE) 17:10:44 145.980
XW-2C 25 Jun 17:04:45 17:06:11 12° 86° (E) 17:07:36 145.795 - 145.815
CUTE-I 25 Jun 17:11:36 17:14:48 16° 86° (E) 17:17:59 437.470
KAITUO 1B 25 Jun 17:20:11 17:22:18 14° 85° (E) 17:24:24 145.475/437.950
BEESAT 3 25 Jun 17:29:33 17:33:06 35° 121° (ESE) 17:36:39 437.485
RS-15 25 Jun 17:35:11 17:46:16 61° 121° (ESE) 17:57:48 29.354- 29.394
NO-84 25 Jun 17:37:27 17:40:25 65° 307° (NW) 17:43:32 435.350 FM
DOVE 4 25 Jun 17:48:13 17:52:42 69° 256° (WSW) 17:56:55 437.250
NUDT-PHONESAT 25 Jun 17:55:37 17:59:16 43° 81° (E) 18:02:52 437.300
O/OREOS (USA 219) 25 Jun 18:06:31 18:08:28 12° 119° (ESE) 18:10:25 437.305
XW-2F 25 Jun 18:08:41 18:12:34 89° 254° (WSW) 18:16:26 145.980 - 146.000
XW-2D 25 Jun 18:12:10 18:16:03 72° 257° (WSW) 18:19:53 145.860 - 145.880
LilacSat-2 25 Jun 18:19:35 18:23:26 54° 256° (WSW) 18:27:14 437.200
XW-2B 25 Jun 18:21:11 18:25:01 56° 256° (WSW) 18:28:47 145.730 - 145.750
BEESAT 2 25 Jun 18:26:41 18:30:29 55° 119° (ESE) 18:34:17 435.950
STRAND 1 25 Jun 18:34:13 18:39:18 65° 105° (ESE) 18:44:25 437.568
XW-2C 25 Jun 18:36:53 18:40:25 33° 254° (WSW) 18:43:54 145.795 - 145.815
Tancredo 1 25 Jun 18:38:01 18:41:01 60° 49° (NE) 18:44:02 437.200
SEEDS 25 Jun 18:40:22 18:43:03 16° 86° (E) 18:45:40 437.485
AO-85 25 Jun 18:43:08 18:46:16 17° 286° (WNW) 18:49:16 145.980
ISS 25 Jun 18:49:08 18:52:07 32° 51° (NE) 18:55:07 437.550
CUTE-I 25 Jun 18:49:53 18:55:00 47° 253° (WSW) 19:00:05 437.470
KAITUO 1B 25 Jun 18:52:59 18:56:15 27° 253° (WSW) 18:59:30 145.475/437.950
CUTE 1.7 + AOD 2 25 Jun 18:55:13 18:59:22 42° 81° (E) 19:03:26 437.475
XW-2A 25 Jun 18:56:45 18:59:43 26° 82° (E) 19:02:39 145.665 - 145.685
CUBEBUG 2 25 Jun 19:00:08 19:03:25 21° 84° (E) 19:06:43 437.445
BEESAT 3 25 Jun 19:08:50 19:10:17 12° 288° (WNW) 19:11:45 437.485
HO-68 25 Jun 19:14:50 19:22:03 68° 77° (ENE) 19:29:12 435.675
ZACube-1 25 Jun 19:32:09 19:34:44 15° 85° (E) 19:37:20 437.345
AAUSAT CUBESAT 2 25 Jun 19:32:25 19:36:10 30° 83° (E) 19:39:51 437.432
UWE-3 25 Jun 19:34:39 19:38:32 32° 82° (E) 19:42:27 435.000/436.395/437.385
YUBILEINY 25 Jun 19:35:47 19:42:44 25° 106° (ESE) 19:49:37 435.215
O/OREOS (USA 219) 25 Jun 19:43:37 19:48:08 50° 285° (WNW) 19:52:35 437.305
RS-15 25 Jun 19:48:34 19:57:56 32° 285° (WNW) 20:07:42 29.354- 29.394
FO-29 25 Jun 19:55:36 20:00:30 21° 112° (ESE) 20:05:04 435.910
M-CUBED/EXP-1 PRIME 25 Jun 20:04:02 20:08:05 32° 113° (ESE) 20:12:15 437.505
SEEDS 25 Jun 20:14:55 20:18:43 31° 253° (WSW) 20:22:28 437.485
Tancredo 1 25 Jun 20:16:28 20:16:52 10° 213° (SSW) 20:17:15 437.200
TIGRISAT 25 Jun 20:17:43 20:19:35 13° 112° (ESE) 20:21:28 435.000
STRAND 1 25 Jun 20:17:58 20:18:47 10° 273° (W) 20:19:36 437.568
PRISM 25 Jun 20:19:46 20:22:14 15° 111° (ESE) 20:24:42 437.425
ISS 25 Jun 20:26:18 20:28:39 18° 217° (SW) 20:31:00 437.550
XW-2A 25 Jun 20:31:02 20:32:07 11° 250° (WSW) 20:33:13 145.665 - 145.685
AO-73 25 Jun 20:32:01 20:36:23 79° 79° (ENE) 20:40:48 145.935
CUTE 1.7 + AOD 2 25 Jun 20:32:52 20:34:44 13° 248° (WSW) 20:36:37 437.475
CUBEBUG 2 25 Jun 20:36:30 20:39:54 23° 252° (WSW) 20:43:21 437.445
UNISAT 6 25 Jun 20:57:07 21:01:16 42° 106° (ESE) 21:05:24 437.425
Oscar 11 25 Jun 21:00:06 21:04:28 61° 256° (WSW) 21:08:47 .
HO-68 25 Jun 21:04:20 21:09:02 19° 242° (WSW) 21:13:44 435.675
DELFI C3 25 Jun 21:04:27 21:08:03 30° 83° (E) 21:11:35 145.870
ZACube-1 25 Jun 21:07:06 21:11:01 33° 254° (WSW) 21:14:58 437.345
AAUSAT CUBESAT 2 25 Jun 21:08:41 21:11:19 16° 250° (WSW) 21:13:55 437.432
UWE-3 25 Jun 21:12:00 21:14:41 16° 250° (WSW) 21:17:24 435.000/436.395/437.385
YUBILEINY 25 Jun 21:31:21 21:39:48 55° 270° (W) 21:48:15 435.215
FO-29 25 Jun 21:38:00 21:45:09 58° 281° (WNW) 21:51:34 435.910
M-CUBED/EXP-1 PRIME 25 Jun 21:39:08 21:42:26 20° 279° (W) 21:45:51 437.505
TIGRISAT 25 Jun 21:51:41 21:55:52 42° 279° (W) 22:00:01 435.000
PRISM 25 Jun 21:53:25 21:57:10 32° 278° (W) 22:00:58 437.425
QB50P2 25 Jun 22:04:36 22:06:38 13° 111° (ESE) 22:08:40 145.880/145.840
EO-88 25 Jun 22:11:05 22:14:39 44° 255° (WSW) 22:18:11 145.990 - 145.960
EO-79 25 Jun 22:27:48 22:31:10 23° 109° (ESE) 22:34:34 145.935-145.965
LO-87 25 Jun 22:35:40 22:38:54 32° 82° (E) 22:42:07 145.935 - 145.965
UNISAT 6 25 Jun 22:36:25 22:38:05 12° 274° (W) 22:39:45 437.425
AIST 2D 25 Jun 22:38:38 22:42:07 79° 100° (E) 22:45:40 435.315
DELFI C3 25 Jun 22:40:18 22:42:29 14° 250° (WSW) 22:44:39 145.870
DUCHIFAT 1 25 Jun 22:42:08 22:45:43 27° 108° (ESE) 22:49:18 145.980
NANOSAT C BR1 25 Jun 22:49:59 22:53:55 39° 106° (ESE) 22:57:53 145.865
PCSat 25 Jun 22:50:45 22:55:57 51° 70° (ENE) 23:01:13 145.827
ESTCUBE 1 25 Jun 23:14:18 23:18:51 59° 80° (E) 23:23:19 437.505/2401.250
VELOX 1 25 Jun 23:20:08 23:22:01 12° 86° (E) 23:23:53 145.980
POLYITAN 1 25 Jun 23:27:00 23:31:11 59° 280° (W) 23:35:23 437.675
Oscar 19 25 Jun 23:32:22 23:34:32 13° 115° (ESE) 23:36:42 437.125/150
QB50P2 25 Jun 23:38:04 23:42:01 38° 279° (W) 23:46:01 145.880/145.840
SPROUT 25 Jun 23:42:51 23:46:30 27° 83° (E) 23:50:06 437.525
BUGSAT 1 25 Jun 23:53:26 23:57:31 56° 104° (ESE) 00:01:35 437.445
JUGNU 25 Jun 23:57:35 00:01:55 21° 13° (NNE) 00:06:12 437.505
50 SAT 26 Jun 00:00:46 00:02:38 14° 85° (E) 00:04:30 437.505
EO-79 26 Jun 00:03:35 00:06:48 21° 276° (W) 00:10:02 145.935-145.965
LO-87 26 Jun 00:11:24 00:11:57 10° 249° (WSW) 00:12:30 145.935 - 145.965
DUCHIFAT 1 26 Jun 00:18:29 00:21:19 17° 275° (W) 00:24:10 145.980
Gurwin Techsat 1B 26 Jun 00:20:12 00:24:28 25° 111° (ESE) 00:28:46 435.225
NANOSAT C BR1 26 Jun 00:28:05 00:29:44 12° 274° (W) 00:31:23 145.865
PCSat 26 Jun 00:36:03 00:39:36 18° 235° (SW) 00:43:12 145.827
VELOX 1 26 Jun 00:54:22 00:58:35 42° 254° (WSW) 01:02:44 145.980
ESTCUBE 1 26 Jun 00:54:32 00:55:03 10° 246° (WSW) 00:55:34 437.505/2401.250
Oscar 19 26 Jun 01:08:08 01:13:14 61° 281° (W) 01:18:24 437.125/150
DX 1 26 Jun 01:14:54 01:19:19 84° 257° (WSW) 01:23:40 434.975-435.025
SPROUT 26 Jun 01:19:10 01:22:09 19° 250° (WSW) 01:25:07 437.525
AO-7 26 Jun 01:30:50 01:37:27 27° 118° (ESE) 01:44:05 .
50 SAT 26 Jun 01:32:39 01:35:20 21° 252° (WSW) 01:37:59 437.505
UKube-1 26 Jun 01:32:45 01:37:07 79° 255° (WSW) 01:41:25 .
SO-50 26 Jun 01:34:24 01:39:03 69° 241° (WSW) 01:43:49 436.795
SRMSAT 26 Jun 01:42:40 01:45:54 15° 17° (NNE) 01:49:08 437.500
JUGNU 26 Jun 01:45:24 01:50:24 29° 3° (N) 01:55:24 437.505
ITAMSAT 1 26 Jun 01:46:29 01:50:13 20° 112° (ESE) 01:53:58 435.822/435.867
Gurwin Techsat 1B 26 Jun 01:59:30 02:04:11 31° 278° (W) 02:08:57 435.225
MOZHAYETS 4 26 Jun 02:26:24 02:29:41 19° 85° (E) 02:32:56
ITUPSAT 1 26 Jun 02:41:48 02:46:27 45° 80° (E) 02:51:02 437.325
Tancredo 1 26 Jun 02:42:05 02:45:03 46° 136° (SE) 02:47:58 437.200
BEESAT 26 Jun 02:51:54 02:56:40 61° 79° (E) 03:01:24 436.000
ISS 26 Jun 02:57:38 03:00:38 31° 139° (SE) 03:03:36 437.550
AO-7 26 Jun 03:21:28 03:29:38 57° 283° (WNW) 03:37:51 .
ITAMSAT 1 26 Jun 03:24:31 03:29:20 38° 279° (W) 03:34:13 435.822/435.867
SRMSAT 26 Jun 03:29:40 03:34:31 26° 9° (N) 03:39:23 437.500
JUGNU 26 Jun 03:34:07 03:38:55 26° 353° (N) 03:43:45 437.505
KKS-1 26 Jun 04:01:45 04:05:18 23° 83° (E) 04:08:49 437.445
MOZHAYETS 4 26 Jun 04:02:41 04:06:48 31° 252° (WSW) 04:10:54
ITUPSAT 1 26 Jun 04:21:10 04:23:49 15° 247° (WSW) 04:26:27 437.325
CUTE-I 26 Jun 04:28:09 04:31:21 16° 114° (ESE) 04:34:32 437.470
STARS 26 Jun 04:32:20 04:35:35 20° 84° (E) 04:38:49 437.465
BEESAT 26 Jun 04:32:36 04:33:50 11° 245° (WSW) 04:35:05 436.000
ISS 26 Jun 04:34:50 04:36:53 16° 306° (NW) 04:38:56 437.550
CUBESAT XI-V 26 Jun 04:42:32 04:47:18 70° 256° (WSW) 04:51:59 437.345
XW-2F 26 Jun 04:44:46 04:47:21 18° 109° (ESE) 04:49:57 145.980 - 146.000
DOVE 4 26 Jun 04:46:12 04:51:27 62° 104° (ESE) 04:56:40 437.250
XW-2D 26 Jun 04:48:14 04:51:09 22° 108° (ESE) 04:54:07 145.860 - 145.880
LilacSat-2 26 Jun 04:55:52 04:59:08 28° 107° (ESE) 05:02:28 437.200
XW-2B 26 Jun 04:56:54 05:00:07 27° 107° (ESE) 05:03:21 145.730 - 145.750
XW-2C 26 Jun 05:11:56 05:15:31 45° 105° (ESE) 05:19:11 145.795 - 145.815
SRMSAT 26 Jun 05:18:05 05:23:13 30° 358° (N) 05:28:23 437.500
JUGNU 26 Jun 05:23:55 05:27:23 16° 344° (NNW) 05:30:50 437.505
KAITUO 1B 26 Jun 05:26:28 05:30:05 53° 103° (ESE) 05:33:46 145.475/437.950
HO-68 26 Jun 05:38:03 05:43:53 28° 115° (ESE) 05:49:46 435.675
KKS-1 26 Jun 05:38:08 05:41:42 24° 251° (WSW) 05:45:15 437.445
CUTE 1.7 + AOD 2 26 Jun 05:43:32 05:45:54 15° 111° (ESE) 05:48:17 437.475
NUDT-PHONESAT 26 Jun 06:02:35 06:06:05 43° 279° (W) 06:09:38 437.300
CUTE-I 26 Jun 06:05:41 06:10:53 51° 280° (W) 06:16:09 437.470
STARS 26 Jun 06:08:10 06:11:50 26° 251° (WSW) 06:15:28 437.465
XW-2F 26 Jun 06:18:26 06:21:17 21° 276° (W) 06:24:11 145.980 - 146.000
XW-2D 26 Jun 06:22:43 06:25:13 17° 275° (W) 06:27:46 145.860 - 145.880
DOVE 4 26 Jun 06:27:17 06:29:20 12° 272° (W) 06:31:24 437.250
UWE-3 26 Jun 06:27:52 06:29:46 13° 111° (ESE) 06:31:40 435.000/436.395/437.385
LilacSat-2 26 Jun 06:31:38 06:33:25 13° 274° (W) 06:35:13 437.200
XW-2B 26 Jun 06:32:21 06:34:16 13° 274° (W) 06:36:12 145.730 - 145.750
STRAND 1 26 Jun 06:50:50 06:55:33 35° 82° (E) 07:00:13 437.568
XW-2A 26 Jun 06:54:12 06:57:34 90° 276° (W) 07:00:58 145.665 - 145.685
SEEDS 26 Jun 06:59:48 07:04:00 83° 105° (ESE) 07:08:17 437.485
SRMSAT 26 Jun 07:07:19 07:11:55 23° 349° (NNW) 07:16:31 437.500
AO-85 26 Jun 07:08:52 07:13:42 52° 67° (ENE) 07:18:49 145.980
BEESAT 3 26 Jun 07:14:14 07:17:19 23° 69° (ENE) 07:20:24 437.485
NO-84 26 Jun 07:15:27 07:15:54 10° 58° (ENE) 07:16:20 435.350 FM
CUTE 1.7 + AOD 2 26 Jun 07:17:31 07:21:22 34° 278° (W) 07:25:17 437.475
AO-73 26 Jun 07:22:13 07:25:46 27° 107° (ESE) 07:29:19 145.935
HO-68 26 Jun 07:24:28 07:31:14 45° 280° (W) 07:38:04 435.675
CUBEBUG 2 26 Jun 07:27:46 07:32:05 58° 280° (W) 07:36:20 437.445
PCSat 26 Jun 07:46:15 07:48:54 13° 128° (SE) 07:51:30 145.827
Oscar 11 26 Jun 07:48:47 07:52:54 46° 105° (ESE) 07:57:06 .
RS-15 26 Jun 07:50:58 08:02:00 69° 68° (ENE) 08:12:46 29.354- 29.394
AAUSAT CUBESAT 2 26 Jun 07:51:10 07:55:13 50° 280° (W) 07:59:20 437.432
ZACube-1 26 Jun 07:56:29 08:00:42 89° 100° (E) 08:04:55 437.345
UWE-3 26 Jun 08:01:50 08:05:50 38° 279° (W) 08:09:49 435.000/436.395/437.385
O/OREOS (USA 219) 26 Jun 08:10:59 08:15:07 36° 77° (ENE) 08:19:19 437.305
BEESAT 2 26 Jun 08:12:27 08:16:06 38° 67° (ENE) 08:19:44 435.950
YUBILEINY 26 Jun 08:29:05 08:36:45 35° 93° (E) 08:44:25 435.215
STRAND 1 26 Jun 08:30:40 08:34:26 21° 248° (WSW) 08:38:10 437.568
EO-88 26 Jun 08:43:09 08:46:18 28° 106° (ESE) 08:49:30 145.990 - 145.960
NO-84 26 Jun 08:49:45 08:53:06 43° 229° (SW) 08:56:14 435.350 FM
AO-85 26 Jun 08:51:00 08:54:30 18° 231° (SW) 08:58:06 145.980
BEESAT 3 26 Jun 08:52:01 08:54:47 19° 236° (SW) 08:57:33 437.485
FO-29 26 Jun 08:54:55 08:58:50 21° 84° (E) 09:02:49 435.910
UNISAT 6 26 Jun 08:55:42 08:58:01 14° 85° (E) 09:00:21 437.425
SRMSAT 26 Jun 08:58:44 09:00:31 11° 340° (NNW) 09:02:19 437.500
AO-73 26 Jun 08:59:15 09:01:57 17° 275° (W) 09:04:40 145.935
DELFI C3 26 Jun 09:17:49 09:21:45 54° 279° (W) 09:25:44 145.870
M-CUBED/EXP-1 PRIME 26 Jun 09:22:41 09:26:44 53° 76° (ENE) 09:30:24 437.505
PCSat 26 Jun 09:27:21 09:32:45 70° 292° (WNW) 09:38:07 145.827
Oscar 11 26 Jun 09:28:21 09:29:13 10° 273° (W) 09:30:05 .
PRISM 26 Jun 09:39:58 09:44:03 51° 80° (E) 09:48:02 437.425
TIGRISAT 26 Jun 09:48:19 09:52:40 59° 79° (E) 09:57:01 435.000
O/OREOS (USA 219) 26 Jun 09:51:50 09:54:37 16° 242° (WSW) 09:57:26 437.305
BEESAT 2 26 Jun 09:52:06 09:53:58 13° 233° (SW) 09:55:49 435.950
RS-15 26 Jun 10:05:57 10:15:03 29° 228° (SW) 10:24:09 29.354- 29.394
ESTCUBE 1 26 Jun 10:08:22 10:12:09 27° 109° (ESE) 10:15:58 437.505/2401.250
SO-50 26 Jun 10:11:51 10:15:41 23° 125° (SE) 10:19:28 436.795
EO-88 26 Jun 10:18:30 10:19:59 12° 274° (W) 10:21:28 145.990 - 145.960
YUBILEINY 26 Jun 10:25:15 10:33:17 40° 258° (WSW) 10:41:22 435.215
UNISAT 6 26 Jun 10:30:44 10:34:46 37° 254° (WSW) 10:38:50 437.425
SPROUT 26 Jun 10:33:18 10:34:00 10° 113° (ESE) 10:34:43 437.525
LO-87 26 Jun 10:38:33 10:42:09 63° 280° (W) 10:45:47 145.935 - 145.965
FO-29 26 Jun 10:39:20 10:43:57 32° 251° (WSW) 10:48:37 435.910
POLYITAN 1 26 Jun 11:17:38 11:21:30 33° 82° (E) 11:25:19 437.675
QB50P2 26 Jun 11:28:14 11:32:24 51° 80° (E) 11:36:31 145.880/145.840
AIST 2D 26 Jun 11:42:26 11:45:44 35° 255° (WSW) 11:49:01 435.315
BUGSAT 1 26 Jun 11:42:45 11:44:25 12° 86° (E) 11:46:04 437.445
VELOX 1 26 Jun 11:45:02 11:49:31 80° 104° (ESE) 11:54:03 145.980
ESTCUBE 1 26 Jun 11:45:26 11:48:50 21° 276° (W) 11:52:18 437.505/2401.250
SO-50 26 Jun 11:51:58 11:56:07 30° 291° (WNW) 12:00:10 436.795
EO-79 26 Jun 11:52:36 11:56:52 84° 254° (WSW) 12:01:07 145.935-145.965
50 SAT 26 Jun 11:57:49 12:01:08 45° 105° (ESE) 12:04:30 437.505
DX 1 26 Jun 12:04:30 12:08:35 39° 107° (ESE) 12:12:43 434.975-435.025
SPROUT 26 Jun 12:05:13 12:09:22 50° 281° (W) 12:13:36 437.525
DUCHIFAT 1 26 Jun 12:06:26 12:10:40 71° 257° (WSW) 12:14:50 145.980
NANOSAT C BR1 26 Jun 12:15:11 12:19:16 47° 255° (WSW) 12:23:19 145.865
UKube-1 26 Jun 12:21:16 12:25:19 39° 107° (ESE) 12:29:26 .
Gurwin Techsat 1B 26 Jun 12:43:02 12:46:06 15° 86° (E) 12:49:08 435.225
POLYITAN 1 26 Jun 12:54:29 12:56:56 15° 249° (WSW) 12:59:22 437.675
BUGSAT 1 26 Jun 13:16:07 13:19:50 35° 254° (WSW) 13:23:31 437.445
Oscar 19 26 Jun 13:25:28 13:30:45 77° 77° (ENE) 13:35:57 437.125/150
DX 1 26 Jun 13:42:38 13:44:51 14° 274° (W) 13:47:04 434.975-435.025
ITUPSAT 1 26 Jun 13:43:10 13:47:11 28° 109° (ESE) 13:51:14 437.325
BEESAT 26 Jun 13:52:37 13:56:57 36° 108° (ESE) 14:01:21 436.000
UKube-1 26 Jun 13:59:28 14:01:27 13° 274° (W) 14:03:26 .
ITAMSAT 1 26 Jun 14:07:35 14:08:12 10° 87° (E) 14:08:48 435.822/435.867
Gurwin Techsat 1B 26 Jun 14:21:03 14:26:13 49° 253° (WSW) 14:31:19 435.225
RS-15 26 Jun 14:51:13 14:53:51 11° 152° (SSE) 14:56:31 29.354- 29.394
KKS-1 26 Jun 14:56:17 14:57:38 11° 113° (ESE) 14:58:59 437.445
MOZHAYETS 4 26 Jun 14:57:57 15:02:28 65° 281° (W) 15:07:03
ITUPSAT 1 26 Jun 15:21:10 15:24:54 23° 277° (W) 15:28:41 437.325
AO-7 26 Jun 15:29:24 15:37:45 73° 75° (ENE) 15:46:01 .
BEESAT 26 Jun 15:31:40 15:34:46 17° 275° (W) 15:37:54 436.000
CUBESAT XI-V 26 Jun 15:39:37 15:44:11 58° 105° (ESE) 15:48:50 437.345
ITAMSAT 1 26 Jun 15:42:48 15:47:59 67° 255° (WSW) 15:53:08 435.822/435.867
AO-85 26 Jun 15:48:28 15:50:27 12° 133° (SE) 15:52:22 145.980
